| time (UTC) | temp C | wind direction | speed KPH | gust KPH | rain 1hr cm | rain 24hr cm | rain mn cm | humidity % | barometer mb |
| 20260505153014 | 11 | 325 | 3.2 | 4.8 | 0.00 | 0.00 | 0.00 | 92 | 1018.4 |
| 20260505152512 | 11 | 310 | 3.2 | 4.8 | 0.00 | 0.00 | 0.00 | 93 | 1018.4 |
| 20260505152007 | 11 | 338 | 4.8 | 4.8 | 0.00 | 0.00 | 0.00 | 92 | 1018.4 |
| 20260505151502 | 12 | 326 | 0.0 | 0.0 | 0.00 | 0.00 | 0.00 | 93 | 1018.3 |
| 20260505151000 | 11 | 307 | 0.0 | 0.0 | 0.00 | 0.00 | 0.00 | 94 | 1018.4 |
| 20260505150456 | 11 | 319 | 1.6 | 3.2 | 0.00 | 0.00 | 0.00 | 94 | 1018.1 |
| 20260505140427 | 11 | 300 | 0.0 | 0.0 | 0.00 | 0.00 | 0.00 | 97 | 1017.7 |
| 20260505124840 | 11 | 302 | 0.0 | 0.0 | 0.00 | 0.00 | 0.00 | 99 | 1017.1 |
| 20260505124337 | 11 | 302 | 0.0 | 0.0 | 0.00 | 0.00 | 0.00 | 98 | 1017.1 |
| 20260505123833 | 11 | 312 | 0.0 | 0.0 | 0.00 | 0.00 | 0.00 | 98 | 1017.0 |
| 20260505123330 | 11 | 313 | 0.0 | 0.0 | 0.00 | 0.00 | 0.00 | 98 | 1017.0 |
| 20260505122826 | 11 | 312 | 0.0 | 0.0 | 0.00 | 0.00 | 0.00 | 98 | 1016.9 |
| 20260505122323 | 11 | 313 | 0.0 | 0.0 | 0.00 | 0.00 | 0.00 | 98 | 1016.9 |
| 20260505121820 | 11 | 311 | 0.0 | 0.0 | 0.00 | 0.00 | 0.00 | 98 | 1017.0 |
| 20260505121317 | 11 | 311 | 0.0 | 0.0 | 0.00 | 0.00 | 0.00 | 97 | 1016.9 |
| 20260505120813 | 11 | 312 | 0.0 | 0.0 | 0.00 | 0.00 | 0.00 | 97 | 1017.0 |
| 20260505120309 | 11 | 312 | 0.0 | 0.0 | 0.00 | 0.00 | 0.00 | 97 | 1016.8 |
| 20260505115808 | 11 | 312 | 0.0 | 0.0 | 0.00 | 0.00 | 0.00 | 97 | 1016.8 |
| 20260505115305 | 11 | 298 | 0.0 | 0.0 | 0.00 | 0.00 | 0.00 | 97 | 1016.8 |
| 20260505114803 | 11 | 331 | 0.0 | 0.0 | 0.00 | 0.00 | 0.00 | 96 | 1016.8 |
| 20260505114259 | 11 | 331 | 0.0 | 0.0 | 0.00 | 0.00 | 0.00 | 96 | 1016.7 |
| 20260505113756 | 11 | 332 | 0.0 | 0.0 | 0.00 | 0.00 | 0.00 | 96 | 1016.9 |
| 20260505113252 | 11 | 314 | 1.6 | 3.2 | 0.00 | 0.00 | 0.00 | 96 | 1016.8 |
| 20260505112748 | 11 | 310 | 0.0 | 0.0 | 0.00 | 0.00 | 0.00 | 96 | 1016.8 |
| 20260505112247 | 11 | 306 | 0.0 | 3.2 | 0.00 | 0.00 | 0.00 | 96 | 1016.8 |
| 20260505111746 | 11 | 332 | 0.0 | 0.0 | 0.00 | 0.00 | 0.00 | 95 | 1016.8 |
| 20260505111242 | 11 | 333 | 0.0 | 0.0 | 0.00 | 0.00 | 0.00 | 95 | 1016.7 |
| 20260505110738 | 11 | 332 | 3.2 | 3.2 | 0.00 | 0.00 | 0.00 | 95 | 1016.7 |
| 20260505110236 | 11 | 329 | 1.6 | 3.2 | 0.00 | 0.00 | 0.00 | 95 | 1016.7 |
| 20260505102211 | 11 | 326 | 0.0 | 0.0 | 0.00 | 0.00 | 0.00 | 95 | 1016.4 |
| 20260505101710 | 11 | 314 | 3.2 | 3.2 | 0.00 | 0.00 | 0.00 | 95 | 1016.5 |
| 20260505101206 | 11 | 351 | 9.7 | 11.3 | 0.00 | 0.00 | 0.00 | 95 | 1016.4 |
| 20260505100702 | 11 | 325 | 0.0 | 0.0 | 0.00 | 0.00 | 0.00 | 96 | 1016.3 |
| 20260505100159 | 11 | 322 | 4.8 | 8.0 | 0.00 | 0.00 | 0.00 | 97 | 1016.4 |
| 20260505095655 | 10 | 311 | 3.2 | 4.8 | 0.00 | 0.00 | 0.00 | 98 | 1016.3 |
| 20260505095153 | 10 | 306 | 0.0 | 0.0 | 0.00 | 0.00 | 0.00 | 98 | 1016.3 |
| 20260505094648 | 10 | 310 | 0.0 | 0.0 | 0.00 | 0.00 | 0.00 | 98 | 1016.3 |
| 20260505094145 | 10 | 310 | 0.0 | 0.0 | 0.00 | 0.00 | 0.00 | 98 | 1016.3 |
| 20260505093641 | 10 | 310 | 0.0 | 0.0 | 0.00 | 0.00 | 0.00 | 98 | 1016.0 |
| 20260505093139 | 10 | 310 | 0.0 | 0.0 | 0.00 | 0.00 | 0.00 | 98 | 1016.1 |
| 20260505092636 | 10 | 310 | 0.0 | 0.0 | 0.00 | 0.00 | 0.00 | 98 | 1015.9 |
| 20260505092135 | 10 | 310 | 0.0 | 0.0 | 0.00 | 0.00 | 0.00 | 98 | 1015.9 |
| 20260505091631 | 10 | 311 | 0.0 | 3.2 | 0.00 | 0.00 | 0.00 | 98 | 1015.8 |
| 20260505091129 | 10 | 311 | 0.0 | 0.0 | 0.00 | 0.00 | 0.00 | 98 | 1015.8 |
| 20260505090627 | 10 | 311 | 0.0 | 0.0 | 0.00 | 0.00 | 0.00 | 97 | 1015.8 |
| 20260505090125 | 10 | 311 | 0.0 | 0.0 | 0.00 | 0.00 | 0.00 | 97 | 1015.9 |
| 20260505085622 | 10 | 311 | 0.0 | 0.0 | 0.00 | 0.00 | 0.00 | 96 | 1016.0 |
| 20260505085120 | 10 | 311 | 0.0 | 3.2 | 0.00 | 0.00 | 0.00 | 96 | 1015.9 |
| 20260505084617 | 10 | 309 | 0.0 | 0.0 | 0.00 | 0.00 | 0.00 | 97 | 1016.0 |
| 20260505084116 | 10 | 310 | 0.0 | 0.0 | 0.00 | 0.00 | 0.00 | 96 | 1015.8 |
| 20260505083613 | 10 | 310 | 0.0 | 0.0 | 0.00 | 0.00 | 0.00 | 96 | 1015.9 |
| 20260505083109 | 10 | 311 | 0.0 | 0.0 | 0.00 | 0.00 | 0.00 | 96 | 1015.9 |
| 20260505082605 | 10 | 311 | 0.0 | 0.0 | 0.00 | 0.00 | 0.00 | 96 | 1015.8 |
| 20260505082102 | 10 | 311 | 0.0 | 0.0 | 0.00 | 0.00 | 0.00 | 95 | 1015.7 |
| 20260505081558 | 10 | 310 | 0.0 | 0.0 | 0.00 | 0.00 | 0.00 | 95 | 1015.8 |
| 20260505081055 | 10 | 311 | 0.0 | 0.0 | 0.00 | 0.00 | 0.00 | 95 | 1015.7 |
| 20260505080551 | 11 | 311 | 0.0 | 0.0 | 0.00 | 0.00 | 0.00 | 95 | 1015.7 |
| 20260505080049 | 11 | 311 | 0.0 | 0.0 | 0.00 | 0.00 | 0.00 | 95 | 1015.8 |
| 20260505075544 | 11 | 311 | 0.0 | 0.0 | 0.00 | 0.00 | 0.00 | 95 | 1015.7 |
| 20260505075041 | 11 | 311 | 0.0 | 0.0 | 0.00 | 0.00 | 0.00 | 94 | 1015.7 |
| 20260505074538 | 11 | 311 | 0.0 | 0.0 | 0.00 | 0.00 | 0.00 | 94 | 1015.6 |
| 20260505074036 | 11 | 311 | 0.0 | 0.0 | 0.00 | 0.00 | 0.00 | 94 | 1015.5 |
| 20260505073533 | 11 | 311 | 0.0 | 0.0 | 0.00 | 0.00 | 0.00 | 93 | 1015.6 |
| 20260505073032 | 11 | 311 | 0.0 | 0.0 | 0.00 | 0.00 | 0.00 | 92 | 1015.3 |
| 20260505072526 | 11 | 311 | 0.0 | 0.0 | 0.00 | 0.00 | 0.00 | 92 | 1015.6 |
| 20260505072023 | 11 | 311 | 0.0 | 0.0 | 0.00 | 0.00 | 0.00 | 92 | 1015.3 |
| 20260505071518 | 11 | 311 | 0.0 | 0.0 | 0.00 | 0.00 | 0.00 | 91 | 1015.3 |
| 20260505071017 | 12 | 311 | 0.0 | 0.0 | 0.00 | 0.00 | 0.00 | 91 | 1015.3 |
| 20260505070514 | 12 | 311 | 0.0 | 0.0 | 0.00 | 0.00 | 0.00 | 90 | 1015.1 |
| 20260505070010 | 12 | 320 | 0.0 | 0.0 | 0.00 | 0.00 | 0.00 | 89 | 1015.2 |
| 20260505065506 | 12 | 321 | 0.0 | 0.0 | 0.00 | 0.00 | 0.00 | 89 | 1015.3 |
| 20260505065003 | 12 | 324 | 1.6 | 3.2 | 0.00 | 0.00 | 0.00 | 89 | 1014.9 |
| 20260505064459 | 12 | 324 | 0.0 | 3.2 | 0.00 | 0.00 | 0.00 | 89 | 1015.0 |
| 20260505063958 | 12 | 287 | 3.2 | 3.2 | 0.00 | 0.00 | 0.00 | 89 | 1014.6 |
| 20260505063454 | 12 | 330 | 1.6 | 3.2 | 0.00 | 0.00 | 0.00 | 88 | 1015.0 |
| 20260505062950 | 12 | 331 | 3.2 | 3.2 | 0.00 | 0.00 | 0.00 | 88 | 1014.9 |
| 20260505062448 | 12 | 317 | 0.0 | 0.0 | 0.00 | 0.00 | 0.00 | 87 | 1014.7 |
| 20260505061944 | 13 | 318 | 0.0 | 0.0 | 0.00 | 0.00 | 0.00 | 86 | 1014.7 |
| 20260505061443 | 13 | 318 | 0.0 | 0.0 | 0.00 | 0.00 | 0.00 | 85 | 1014.7 |
| 20260505060940 | 13 | 318 | 0.0 | 0.0 | 0.00 | 0.00 | 0.00 | 84 | 1014.6 |
| 20260505060437 | 13 | 328 | 1.6 | 3.2 | 0.00 | 0.00 | 0.00 | 84 | 1014.6 |
| 20260505055933 | 13 | 321 | 3.2 | 3.2 | 0.00 | 0.00 | 0.00 | 84 | 1014.5 |
| 20260505055429 | 14 | 320 | 3.2 | 4.8 | 0.00 | 0.00 | 0.00 | 83 | 1014.4 |
| 20260505054926 | 14 | 336 | 0.0 | 3.2 | 0.00 | 0.00 | 0.00 | 83 | 1014.4 |
| 20260505054423 | 14 | 333 | 0.0 | 3.2 | 0.00 | 0.00 | 0.00 | 84 | 1014.4 |
| 20260505053921 | 14 | 329 | 0.0 | 0.0 | 0.00 | 0.00 | 0.00 | 83 | 1014.4 |
| 20260505053418 | 14 | 319 | 0.0 | 0.0 | 0.00 | 0.00 | 0.00 | 82 | 1014.4 |
| 20260505052915 | 14 | 320 | 1.6 | 3.2 | 0.00 | 0.00 | 0.00 | 82 | 1014.4 |
| 20260505052412 | 14 | 326 | 0.0 | 0.0 | 0.00 | 0.00 | 0.00 | 83 | 1014.5 |
| 20260505051909 | 14 | 327 | 0.0 | 0.0 | 0.00 | 0.00 | 0.00 | 82 | 1014.4 |
| 20260505051406 | 15 | 328 | 0.0 | 0.0 | 0.00 | 0.00 | 0.00 | 82 | 1014.3 |
| 20260505050904 | 15 | 313 | 0.0 | 0.0 | 0.00 | 0.00 | 0.00 | 81 | 1014.3 |
| 20260505050402 | 15 | 313 | 1.6 | 3.2 | 0.00 | 0.00 | 0.00 | 80 | 1014.3 |
| 20260505041330 | 17 | 308 | 0.0 | 0.0 | 0.00 | 0.00 | 0.00 | 73 | 1013.5 |
| 20260505040827 | 17 | 321 | 0.0 | 0.0 | 0.00 | 0.00 | 0.00 | 72 | 1013.6 |
| 20260505040325 | 17 | 322 | 0.0 | 0.0 | 0.00 | 0.00 | 0.00 | 71 | 1013.6 |
| 20260505035821 | 17 | 327 | 3.2 | 4.8 | 0.00 | 0.00 | 0.00 | 70 | 1013.5 |
| 20260505035316 | 17 | 335 | 1.6 | 3.2 | 0.00 | 0.00 | 0.00 | 69 | 1013.6 |
| 20260505034814 | 18 | 334 | 4.8 | 8.0 | 0.00 | 0.00 | 0.00 | 70 | 1013.5 |
| 20260505034311 | 18 | 330 | 3.2 | 4.8 | 0.00 | 0.00 | 0.00 | 69 | 1013.2 |
| 20260505033808 | 18 | 351 | 8.0 | 11.3 | 0.00 | 0.00 | 0.00 | 68 | 1013.1 |
| 20260505033305 | 19 | 335 | 6.4 | 8.0 | 0.00 | 0.00 | 0.00 | 67 | 1013.1 |
| 20260505032803 | 20 | 341 | 3.2 | 4.8 | 0.00 | 0.00 | 0.00 | 65 | 1013.1 |
| 20260505032254 | 20 | 337 | 4.8 | 4.8 | 0.00 | 0.00 | 0.00 | 64 | 1012.9 |
| 20260505031751 | 20 | 347 | 4.8 | 4.8 | 0.00 | 0.00 | 0.00 | 65 | 1012.7 |
| 20260505031247 | 20 | 322 | 3.2 | 4.8 | 0.00 | 0.00 | 0.00 | 64 | 1012.8 |
| 20260505030744 | 21 | 342 | 3.2 | 4.8 | 0.00 | 0.00 | 0.00 | 63 | 1012.8 |
| 20260505030240 | 21 | 327 | 3.2 | 8.0 | 0.00 | 0.00 | 0.00 | 62 | 1012.6 |
| 20260505025736 | 21 | 333 | 1.6 | 3.2 | 0.00 | 0.00 | 0.00 | 62 | 1012.4 |
| 20260505025234 | 22 | 330 | 0.0 | 0.0 | 0.00 | 0.00 | 0.00 | 59 | 1012.5 |
| 20260505024732 | 22 | 322 | 1.6 | 3.2 | 0.00 | 0.00 | 0.00 | 58 | 1012.3 |
| 20260505024229 | 22 | 335 | 1.6 | 3.2 | 0.00 | 0.00 | 0.00 | 57 | 1012.5 |
| 20260505023727 | 22 | 347 | 8.0 | 8.0 | 0.00 | 0.00 | 0.00 | 57 | 1012.2 |
| 20260505023224 | 22 | 59 | 8.0 | 11.3 | 0.00 | 0.00 | 0.00 | 56 | 1012.2 |
| 20260505022721 | 23 | 333 | 3.2 | 4.8 | 0.00 | 0.00 | 0.00 | 56 | 1012.2 |
| 20260505022218 | 23 | 335 | 4.8 | 8.0 | 0.00 | 0.00 | 0.00 | 55 | 1012.4 |
| 20260505021714 | 23 | 67 | 9.7 | 14.5 | 0.00 | 0.00 | 0.00 | 54 | 1012.2 |
| 20260505021212 | 23 | 306 | 4.8 | 8.0 | 0.00 | 0.00 | 0.00 | 54 | 1012.3 |
| 20260505020707 | 24 | 332 | 3.2 | 8.0 | 0.00 | 0.00 | 0.00 | 53 | 1012.2 |
| 20260505020203 | 24 | 1 | 8.0 | 11.3 | 0.00 | 0.00 | 0.00 | 52 | 1012.2 |
| 20260505015700 | 24 | 49 | 8.0 | 11.3 | 0.00 | 0.00 | 0.00 | 51 | 1012.2 |
| 20260505015156 | 25 | 352 | 6.4 | 8.0 | 0.00 | 0.00 | 0.00 | 49 | 1012.1 |
| 20260505014654 | 25 | 322 | 3.2 | 4.8 | 0.00 | 0.00 | 0.00 | 48 | 1012.1 |
| 20260505014150 | 25 | 47 | 9.7 | 11.3 | 0.00 | 0.00 | 0.00 | 45 | 1012.3 |
| 20260505013648 | 25 | 359 | 4.8 | 4.8 | 0.00 | 0.00 | 0.00 | 47 | 1012.0 |
| 20260505013144 | 25 | 329 | 4.8 | 8.0 | 0.00 | 0.00 | 0.00 | 46 | 1012.2 |
| 20260505012643 | 25 | 64 | 17.7 | 24.1 | 0.00 | 0.00 | 0.00 | 45 | 1012.2 |
| 20260505012140 | 25 | 5 | 4.8 | 8.0 | 0.00 | 0.00 | 0.00 | 44 | 1011.9 |
| 20260505011635 | 26 | 303 | 4.8 | 4.8 | 0.00 | 0.00 | 0.00 | 42 | 1012.2 |
| 20260505011133 | 26 | 350 | 4.8 | 8.0 | 0.00 | 0.00 | 0.00 | 41 | 1012.1 |
| 20260505010628 | 26 | 338 | 9.7 | 14.5 | 0.00 | 0.00 | 0.00 | 41 | 1012.3 |
| 20260505010125 | 26 | 314 | 4.8 | 4.8 | 0.00 | 0.00 | 0.00 | 39 | 1012.2 |
| 20260505005621 | 26 | 0 | 3.2 | 4.8 | 0.00 | 0.00 | 0.00 | 39 | 1012.2 |
| 20260505005118 | 26 | 352 | 8.0 | 11.3 | 0.00 | 0.00 | 0.00 | 40 | 1012.3 |
| 20260505004615 | 26 | 22 | 6.4 | 8.0 | 0.00 | 0.00 | 0.00 | 42 | 1012.4 |
| 20260505004112 | 26 | 341 | 4.8 | 8.0 | 0.00 | 0.00 | 0.00 | 41 | 1012.3 |
| 20260505003609 | 26 | 59 | 6.4 | 11.3 | 0.00 | 0.00 | 0.00 | 44 | 1012.1 |
| 20260505003106 | 26 | 7 | 9.7 | 11.3 | 0.00 | 0.00 | 0.00 | 44 | 1012.2 |
| 20260505002601 | 26 | 345 | 6.4 | 11.3 | 0.00 | 0.00 | 0.00 | 45 | 1012.1 |
| 20260505002055 | 26 | 343 | 3.2 | 4.8 | 0.00 | 0.00 | 0.00 | 45 | 1012.2 |
| 20260505001552 | 26 | 314 | 4.8 | 8.0 | 0.00 | 0.00 | 0.00 | 42 | 1012.2 |
| 20260505001049 | 27 | 324 | 3.2 | 4.8 | 0.00 | 0.00 | 0.00 | 44 | 1012.3 |
| 20260505000546 | 27 | 321 | 4.8 | 8.0 | 0.00 | 0.00 | 0.00 | 42 | 1012.2 |
| 20260505000044 | 27 | 311 | 1.6 | 3.2 | 0.00 | 0.00 | 0.00 | 40 | 1012.2 |
| 20260504235540 | 27 | 5 | 4.8 | 8.0 | 0.00 | 0.00 | 0.00 | 43 | 1012.2 |
| 20260504235037 | 27 | 322 | 0.0 | 0.0 | 0.00 | 0.00 | 0.00 | 44 | 1012.4 |
| 20260504234534 | 27 | 345 | 6.4 | 8.0 | 0.00 | 0.00 | 0.00 | 42 | 1012.3 |
| 20260504234031 | 26 | 325 | 6.4 | 8.0 | 0.00 | 0.00 | 0.00 | 45 | 1012.4 |
| 20260504233526 | 26 | 10 | 4.8 | 8.0 | 0.00 | 0.00 | 0.00 | 44 | 1012.4 |
| 20260504233024 | 26 | 333 | 11.3 | 14.5 | 0.00 | 0.00 | 0.00 | 41 | 1012.5 |
| 20260504232521 | 26 | 317 | 4.8 | 8.0 | 0.00 | 0.00 | 0.00 | 44 | 1012.3 |
| 20260504232018 | 26 | 52 | 6.4 | 11.3 | 0.00 | 0.00 | 0.00 | 46 | 1012.1 |
| 20260504231515 | 27 | 332 | 1.6 | 3.2 | 0.00 | 0.00 | 0.00 | 42 | 1012.3 |
| 20260504231011 | 27 | 339 | 3.2 | 4.8 | 0.00 | 0.00 | 0.00 | 41 | 1012.4 |
| 20260504230508 | 26 | 328 | 1.6 | 4.8 | 0.00 | 0.00 | 0.00 | 39 | 1012.5 |
| 20260504230007 | 27 | 299 | 1.6 | 3.2 | 0.00 | 0.00 | 0.00 | 42 | 1012.6 |
| 20260504225503 | 26 | 331 | 4.8 | 8.0 | 0.00 | 0.00 | 0.00 | 43 | 1012.6 |
| 20260504225000 | 26 | 328 | 4.8 | 4.8 | 0.00 | 0.00 | 0.00 | 47 | 1012.4 |
| 20260504224456 | 26 | 57 | 8.0 | 11.3 | 0.00 | 0.00 | 0.00 | 43 | 1012.6 |
| 20260504223953 | 26 | 73 | 9.7 | 11.3 | 0.00 | 0.00 | 0.00 | 43 | 1012.7 |
| 20260504223450 | 26 | 339 | 3.2 | 3.2 | 0.00 | 0.00 | 0.00 | 38 | 1012.7 |
| 20260504222945 | 26 | 11 | 4.8 | 4.8 | 0.00 | 0.00 | 0.00 | 39 | 1012.7 |
| 20260504222443 | 26 | 309 | 0.0 | 0.0 | 0.00 | 0.00 | 0.00 | 37 | 1012.7 |
| 20260504221941 | 26 | 308 | 6.4 | 11.3 | 0.00 | 0.00 | 0.00 | 39 | 1012.6 |
| 20260504221438 | 26 | 340 | 3.2 | 4.8 | 0.00 | 0.00 | 0.00 | 40 | 1012.9 |
| 20260504220934 | 26 | 323 | 1.6 | 3.2 | 0.00 | 0.00 | 0.00 | 45 | 1012.8 |
| 20260504220431 | 26 | 323 | 6.4 | 14.5 | 0.00 | 0.00 | 0.00 | 42 | 1013.0 |
| 20260504215928 | 26 | 333 | 4.8 | 4.8 | 0.00 | 0.00 | 0.00 | 39 | 1013.0 |
| 20260504215425 | 26 | 318 | 3.2 | 3.2 | 0.00 | 0.00 | 0.00 | 40 | 1012.9 |
| 20260504214921 | 26 | 344 | 6.4 | 11.3 | 0.00 | 0.00 | 0.00 | 40 | 1013.1 |
| 20260504214418 | 26 | 357 | 8.0 | 11.3 | 0.00 | 0.00 | 0.00 | 42 | 1013.0 |
| 20260504213915 | 26 | 13 | 4.8 | 4.8 | 0.00 | 0.00 | 0.00 | 43 | 1013.1 |
| 20260504213410 | 26 | 52 | 9.7 | 16.1 | 0.00 | 0.00 | 0.00 | 44 | 1013.2 |
| 20260504212909 | 26 | 61 | 11.3 | 14.5 | 0.00 | 0.00 | 0.00 | 43 | 1013.2 |
| 20260504212404 | 26 | 342 | 4.8 | 4.8 | 0.00 | 0.00 | 0.00 | 41 | 1013.2 |
| 20260504211902 | 25 | 16 | 3.2 | 4.8 | 0.00 | 0.00 | 0.00 | 42 | 1013.3 |
| 20260504211358 | 26 | 339 | 4.8 | 8.0 | 0.00 | 0.00 | 0.00 | 45 | 1013.1 |
| 20260504210855 | 25 | 6 | 8.0 | 11.3 | 0.00 | 0.00 | 0.00 | 46 | 1013.2 |
| 20260504210352 | 25 | 335 | 6.4 | 11.3 | 0.00 | 0.00 | 0.00 | 47 | 1013.4 |
| 20260504205849 | 25 | 307 | 4.8 | 4.8 | 0.00 | 0.00 | 0.00 | 48 | 1013.2 |
| 20260504205347 | 26 | 115 | 11.3 | 14.5 | 0.00 | 0.00 | 0.00 | 48 | 1012.9 |
| 20260504204845 | 26 | 297 | 4.8 | 8.0 | 0.00 | 0.00 | 0.00 | 48 | 1013.2 |
| 20260504204343 | 25 | 351 | 1.6 | 4.8 | 0.00 | 0.00 | 0.00 | 47 | 1013.1 |
| 20260504203842 | 25 | 315 | 3.2 | 3.2 | 0.00 | 0.00 | 0.00 | 43 | 1013.3 |
| 20260504203339 | 25 | 323 | 3.2 | 4.8 | 0.00 | 0.00 | 0.00 | 50 | 1013.1 |
| 20260504202834 | 25 | 277 | 4.8 | 4.8 | 0.00 | 0.00 | 0.00 | 48 | 1013.3 |
| 20260504202332 | 25 | 295 | 1.6 | 3.2 | 0.00 | 0.00 | 0.00 | 46 | 1013.2 |
| 20260504201828 | 25 | 350 | 4.8 | 4.8 | 0.00 | 0.00 | 0.00 | 44 | 1013.3 |
| 20260504201326 | 25 | 8 | 6.4 | 11.3 | 0.00 | 0.00 | 0.00 | 46 | 1013.2 |
| 20260504200823 | 25 | 317 | 1.6 | 4.8 | 0.00 | 0.00 | 0.00 | 45 | 1013.3 |
| 20260504200320 | 25 | 35 | 11.3 | 14.5 | 0.00 | 0.00 | 0.00 | 45 | 1013.3 |
| 20260504195816 | 25 | 341 | 8.0 | 11.3 | 0.00 | 0.00 | 0.00 | 47 | 1013.3 |
| 20260504195312 | 24 | 200 | 6.4 | 8.0 | 0.00 | 0.00 | 0.00 | 48 | 1013.6 |
| 20260504194809 | 24 | 41 | 8.0 | 11.3 | 0.00 | 0.00 | 0.00 | 47 | 1013.4 |
| 20260504194305 | 24 | 335 | 8.0 | 11.3 | 0.00 | 0.00 | 0.00 | 48 | 1013.5 |
| 20260504193801 | 23 | 321 | 8.0 | 11.3 | 0.00 | 0.00 | 0.00 | 48 | 1013.4 |
| 20260504193259 | 24 | 187 | 4.8 | 11.3 | 0.00 | 0.00 | 0.00 | 47 | 1013.6 |
| 20260504192757 | 24 | 321 | 1.6 | 3.2 | 0.00 | 0.00 | 0.00 | 48 | 1013.4 |
| 20260504192254 | 24 | 322 | 4.8 | 4.8 | 0.00 | 0.00 | 0.00 | 50 | 1013.6 |
| 20260504191753 | 25 | 319 | 4.8 | 4.8 | 0.00 | 0.00 | 0.00 | 44 | 1013.5 |
| 20260504191250 | 25 | 300 | 1.6 | 3.2 | 0.00 | 0.00 | 0.00 | 50 | 1013.4 |
| 20260504190745 | 25 | 326 | 1.6 | 3.2 | 0.00 | 0.00 | 0.00 | 47 | 1013.5 |
| 20260504190242 | 25 | 17 | 3.2 | 3.2 | 0.00 | 0.00 | 0.00 | 49 | 1013.5 |
| 20260504185738 | 25 | 36 | 6.4 | 11.3 | 0.00 | 0.00 | 0.00 | 46 | 1013.8 |
| 20260504185235 | 24 | 278 | 1.6 | 3.2 | 0.00 | 0.00 | 0.00 | 51 | 1013.8 |
| 20260504184731 | 23 | 335 | 6.4 | 8.0 | 0.00 | 0.00 | 0.00 | 48 | 1013.8 |
| 20260504184227 | 24 | 337 | 6.4 | 8.0 | 0.00 | 0.00 | 0.00 | 46 | 1013.8 |
| 20260504183723 | 24 | 324 | 3.2 | 4.8 | 0.00 | 0.00 | 0.00 | 46 | 1013.6 |
| 20260504183220 | 25 | 320 | 0.0 | 0.0 | 0.00 | 0.00 | 0.00 | 50 | 1013.9 |
| 20260504182718 | 23 | 316 | 0.0 | 0.0 | 0.00 | 0.00 | 0.00 | 49 | 1013.9 |
| 20260504182215 | 23 | 333 | 6.4 | 8.0 | 0.00 | 0.00 | 0.00 | 50 | 1013.8 |
| 20260504181713 | 23 | 318 | 6.4 | 8.0 | 0.00 | 0.00 | 0.00 | 51 | 1013.9 |
| 20260504181210 | 23 | 326 | 4.8 | 4.8 | 0.00 | 0.00 | 0.00 | 53 | 1014.1 |
| 20260504180709 | 23 | 308 | 3.2 | 3.2 | 0.00 | 0.00 | 0.00 | 53 | 1014.1 |
| 20260504180207 | 23 | 310 | 3.2 | 4.8 | 0.00 | 0.00 | 0.00 | 49 | 1013.9 |
| 20260504175704 | 23 | 310 | 3.2 | 3.2 | 0.00 | 0.00 | 0.00 | 50 | 1013.9 |
| 20260504175201 | 24 | 305 | 0.0 | 0.0 | 0.00 | 0.00 | 0.00 | 53 | 1014.1 |
| 20260504174659 | 23 | 338 | 8.0 | 11.3 | 0.00 | 0.00 | 0.00 | 49 | 1013.8 |
| 20260504174156 | 23 | 300 | 1.6 | 3.2 | 0.00 | 0.00 | 0.00 | 52 | 1013.9 |
| 20260504173653 | 23 | 344 | 6.4 | 8.0 | 0.00 | 0.00 | 0.00 | 50 | 1013.9 |
| 20260504173150 | 22 | 298 | 3.2 | 4.8 | 0.00 | 0.00 | 0.00 | 57 | 1013.9 |
| 20260504172647 | 22 | 274 | 3.2 | 4.8 | 0.00 | 0.00 | 0.00 | 54 | 1013.8 |
| 20260504172143 | 22 | 311 | 0.0 | 0.0 | 0.00 | 0.00 | 0.00 | 55 | 1014.1 |
| 20260504171639 | 22 | 332 | 3.2 | 4.8 | 0.00 | 0.00 | 0.00 | 54 | 1013.7 |
| 20260504171137 | 22 | 312 | 3.2 | 3.2 | 0.00 | 0.00 | 0.00 | 53 | 1013.9 |
| 20260504170633 | 22 | 322 | 8.0 | 11.3 | 0.00 | 0.00 | 0.00 | 56 | 1013.7 |
| 20260504170131 | 21 | 321 | 0.0 | 3.2 | 0.00 | 0.00 | 0.00 | 54 | 1013.7 |